SKW3436 CYLW-KSEA

Flight info

Callsign SKW3436
Flight time N/A
Altitude 28000
Route YDC DCT JAKSN GLASR3
Aircraft E75L/M-SDE3GILORVW/S

Departure

Time 2026-04-28 22:18
Airport Kelowna International Airport (CYLW)

Arrival

Time N/A
Airport Seattle–Tacoma International Airport (KSEA)
Time Latitude Longitude Altitude Speed Heading
2026-04-28 22:00 49.95193 -119.38018 1417 ft 0 kts 275°
2026-04-28 22:10 49.95192 -119.37990 1417 ft 4 kts 275°
2026-04-28 22:10 49.95190 -119.37956 1417 ft 4 kts 261°
2026-04-28 22:10 49.95204 -119.37944 1419 ft 3 kts 175°
2026-04-28 22:11 49.95219 -119.37946 1417 ft 0 kts 175°
2026-04-28 22:15 49.95207 -119.37944 1418 ft 4 kts 175°
2026-04-28 22:15 49.95167 -119.37938 1417 ft 7 kts 167°
2026-04-28 22:15 49.95152 -119.37910 1417 ft 5 kts 102°
2026-04-28 22:16 49.95125 -119.37858 1417 ft 8 kts 156°
2026-04-28 22:16 49.95056 -119.37840 1418 ft 9 kts 172°
2026-04-28 22:16 49.94995 -119.37832 1418 ft 7 kts 176°
2026-04-28 22:16 49.94939 -119.37825 1418 ft 8 kts 175°
2026-04-28 22:17 49.94858 -119.37816 1418 ft 16 kts 175°
2026-04-28 22:17 49.94783 -119.37762 1419 ft 12 kts 130°
2026-04-28 22:17 49.94775 -119.37666 1419 ft 10 kts 32°
2026-04-28 22:17 49.94805 -119.37659 1420 ft 2 kts 349°
2026-04-28 22:18 49.94898 -119.37678 1420 ft 47 kts 354°
2026-04-28 22:18 49.95525 -119.37767 1419 ft 132 kts 354°
2026-04-28 22:18 49.96598 -119.37939 1891 ft 173 kts 354°
2026-04-28 22:18 49.97856 -119.38173 2947 ft 187 kts 352°
2026-04-28 22:19 49.99230 -119.38406 3910 ft 210 kts 353°
2026-04-28 22:19 50.00742 -119.38675 4900 ft 231 kts 353°
2026-04-28 22:19 50.02324 -119.39224 6249 ft 230 kts 339°
2026-04-28 22:19 50.03832 -119.40101 7524 ft 233 kts 339°
2026-04-28 22:20 50.05370 -119.40937 8744 ft 234 kts 339°
2026-04-28 22:20 50.06915 -119.41772 9934 ft 237 kts 338°
2026-04-28 22:20 50.08500 -119.42622 10974 ft 241 kts 339°
2026-04-28 22:20 50.10088 -119.43519 11971 ft 246 kts 333°
2026-04-28 22:21 50.11543 -119.44926 12928 ft 248 kts 320°
2026-04-28 22:21 50.12794 -119.46792 13938 ft 250 kts 310°
2026-04-28 22:21 50.13563 -119.49233 14706 ft 258 kts 280°
2026-04-28 22:21 50.13378 -119.52015 15522 ft 266 kts 250°
2026-04-28 22:22 50.12452 -119.54538 16336 ft 271 kts 238°
2026-04-28 22:22 50.11246 -119.56819 17110 ft 277 kts 223°
2026-04-28 22:22 50.09719 -119.58680 17882 ft 281 kts 218°
2026-04-28 22:22 50.08137 -119.60504 18614 ft 285 kts 218°
2026-04-28 22:23 50.06523 -119.62358 19204 ft 291 kts 218°
2026-04-28 22:23 50.04881 -119.64228 19827 ft 294 kts 218°
2026-04-28 22:23 50.03219 -119.66116 20435 ft 298 kts 218°
2026-04-28 22:23 50.01558 -119.67995 21025 ft 301 kts 218°
2026-04-28 22:24 49.99853 -119.69915 21613 ft 304 kts 218°
2026-04-28 22:24 49.98126 -119.71855 22170 ft 308 kts 218°
2026-04-28 22:24 49.96379 -119.73810 22724 ft 311 kts 218°
2026-04-28 22:24 49.94611 -119.75779 23254 ft 315 kts 218°
2026-04-28 22:25 49.92822 -119.77769 23743 ft 318 kts 218°
2026-04-28 22:25 49.91013 -119.79771 24163 ft 321 kts 218°
2026-04-28 22:25 49.89191 -119.81782 24575 ft 319 kts 218°
2026-04-28 22:25 49.87356 -119.83803 24616 ft 330 kts 218°
2026-04-28 22:26 49.85506 -119.85837 25134 ft 326 kts 219°
2026-04-28 22:26 49.83652 -119.87888 25470 ft 330 kts 219°
2026-04-28 22:26 49.81722 -119.90016 25696 ft 347 kts 219°
2026-04-28 22:26 49.79685 -119.92242 25716 ft 369 kts 219°
2026-04-28 22:27 49.77528 -119.94596 25779 ft 389 kts 219°
2026-04-28 22:27 49.75301 -119.97020 26018 ft 402 kts 218°
2026-04-28 22:27 49.72996 -119.99531 26502 ft 408 kts 219°
2026-04-28 22:27 49.70671 -120.02065 27066 ft 411 kts 219°
2026-04-28 22:28 49.68324 -120.04616 27653 ft 413 kts 219°
2026-04-28 22:28 49.65969 -120.07170 28202 ft 416 kts 219°
2026-04-28 22:28 49.63555 -120.09780 28197 ft 431 kts 219°
2026-04-28 22:28 49.61062 -120.12463 28190 ft 442 kts 219°
2026-04-28 22:29 49.58511 -120.15206 28202 ft 450 kts 219°
2026-04-28 22:29 49.53337 -120.20755 28197 ft 456 kts 219°
2026-04-28 22:30 49.48126 -120.26329 28136 ft 456 kts 219°
2026-04-28 22:30 49.42904 -120.31898 28124 ft 456 kts 219°
2026-04-28 22:31 49.37673 -120.37454 28145 ft 459 kts 218°
2026-04-28 22:31 49.32155 -120.42534 28140 ft 462 kts 216°
2026-04-28 22:32 49.26629 -120.47597 28141 ft 463 kts 216°
2026-04-28 22:32 49.21113 -120.52662 28157 ft 462 kts 216°
2026-04-28 22:33 49.15594 -120.57730 28153 ft 463 kts 216°
2026-04-28 22:33 49.10101 -120.62760 28179 ft 464 kts 216°
2026-04-28 22:34 49.04564 -120.67819 28181 ft 464 kts 216°
2026-04-28 22:34 48.99032 -120.72865 28156 ft 463 kts 216°
2026-04-28 22:35 48.93509 -120.77885 28183 ft 463 kts 216°
2026-04-28 22:35 48.87981 -120.82899 28187 ft 464 kts 216°
2026-04-28 22:36 48.82434 -120.87925 28198 ft 466 kts 215°
2026-04-28 22:36 48.76874 -120.92925 28186 ft 465 kts 216°
2026-04-28 22:37 48.71326 -120.97931 28201 ft 463 kts 215°
2026-04-28 22:37 48.65781 -121.02932 28197 ft 465 kts 215°
2026-04-28 22:38 48.60230 -121.07900 28224 ft 464 kts 215°
2026-04-28 22:38 48.57476 -121.10354 28197 ft 452 kts 215°
2026-04-28 22:38 48.54814 -121.12721 28211 ft 438 kts 216°
2026-04-28 22:39 48.49698 -121.17273 27965 ft 418 kts 216°
2026-04-28 22:39 48.47210 -121.19484 27346 ft 413 kts 216°
2026-04-28 22:39 48.44711 -121.21703 26739 ft 412 kts 215°
2026-04-28 22:39 48.42242 -121.23892 26162 ft 412 kts 216°
2026-04-28 22:40 48.39773 -121.26080 25554 ft 411 kts 215°
2026-04-28 22:40 48.37317 -121.28250 24966 ft 408 kts 215°
2026-04-28 22:40 48.34910 -121.30374 24394 ft 405 kts 215°
2026-04-28 22:40 48.32486 -121.32509 23817 ft 402 kts 215°
2026-04-28 22:41 48.30084 -121.34624 23047 ft 400 kts 215°
2026-04-28 22:41 48.27684 -121.36743 22070 ft 401 kts 214°
2026-04-28 22:41 48.25276 -121.38859 21096 ft 402 kts 214°
2026-04-28 22:41 48.22892 -121.40946 20578 ft 391 kts 213°
2026-04-28 22:42 48.20569 -121.42979 20033 ft 382 kts 213°
2026-04-28 22:42 48.18299 -121.44967 19488 ft 374 kts 213°
2026-04-28 22:42 48.16083 -121.46906 19037 ft 366 kts 213°
2026-04-28 22:42 48.13899 -121.48818 18537 ft 362 kts 213°
2026-04-28 22:43 48.11738 -121.50707 18046 ft 358 kts 213°
2026-04-28 22:43 48.09590 -121.52577 17598 ft 357 kts 212°
2026-04-28 22:43 48.07449 -121.54448 17129 ft 356 kts 212°
2026-04-28 22:43 48.05312 -121.56307 16645 ft 355 kts 212°
2026-04-28 22:44 48.03189 -121.58152 16181 ft 352 kts 212°
2026-04-28 22:44 48.01078 -121.59984 15716 ft 349 kts 212°
2026-04-28 22:44 47.98986 -121.61803 15257 ft 346 kts 212°
2026-04-28 22:44 47.96914 -121.63598 14805 ft 343 kts 212°
2026-04-28 22:45 47.95557 -121.64777 14511 ft 338 kts 212°
2026-04-28 22:45 47.93540 -121.66522 14043 ft 332 kts 212°
2026-04-28 22:45 47.91562 -121.68231 13600 ft 325 kts 212°
2026-04-28 22:45 47.89632 -121.69898 13194 ft 317 kts 212°
2026-04-28 22:46 47.87790 -121.71634 12778 ft 309 kts 220°
2026-04-28 22:46 47.86214 -121.73756 12376 ft 302 kts 225°
2026-04-28 22:46 47.84688 -121.75878 11973 ft 298 kts 224°
2026-04-28 22:46 47.83164 -121.77942 11584 ft 294 kts 224°
2026-04-28 22:47 47.81650 -121.79969 11192 ft 291 kts 223°
2026-04-28 22:47 47.80149 -121.81968 10805 ft 288 kts 223°
2026-04-28 22:47 47.78658 -121.83945 10428 ft 286 kts 223°
2026-04-28 22:47 47.77204 -121.85944 10033 ft 283 kts 230°
2026-04-28 22:48 47.76280 -121.88468 9610 ft 278 kts 257°
2026-04-28 22:48 47.76030 -121.91287 9309 ft 275 kts 265°
2026-04-28 22:48 47.75841 -121.94121 8957 ft 277 kts 265°
2026-04-28 22:48 47.75647 -121.96966 8625 ft 276 kts 265°
2026-04-28 22:49 47.75447 -121.99799 8285 ft 276 kts 265°
2026-04-28 22:49 47.75247 -122.02626 7953 ft 274 kts 265°
2026-04-28 22:49 47.75045 -122.05431 7631 ft 273 kts 265°
2026-04-28 22:49 47.74851 -122.08243 7285 ft 273 kts 265°
2026-04-28 22:50 47.74660 -122.11048 6939 ft 272 kts 265°
2026-04-28 22:50 47.74475 -122.13831 6596 ft 270 kts 265°
2026-04-28 22:50 47.74292 -122.16583 6272 ft 265 kts 265°
2026-04-28 22:50 47.74116 -122.19277 5963 ft 259 kts 265°
2026-04-28 22:51 47.73945 -122.21882 5578 ft 256 kts 265°
2026-04-28 22:51 47.73781 -122.24506 5008 ft 248 kts 265°
2026-04-28 22:51 47.73592 -122.26981 4450 ft 241 kts 256°
2026-04-28 22:51 47.72789 -122.29058 4132 ft 225 kts 221°
2026-04-28 22:52 47.71475 -122.30125 4379 ft 210 kts 203°
2026-04-28 22:52 47.70130 -122.31065 4448 ft 215 kts 211°
2026-04-28 22:52 47.68710 -122.31775 4350 ft 223 kts 183°
2026-04-28 22:52 47.67171 -122.31605 4275 ft 218 kts 175°
2026-04-28 22:53 47.65656 -122.31557 4270 ft 217 kts 184°
2026-04-28 22:53 47.64126 -122.31667 4042 ft 222 kts 182°
2026-04-28 22:53 47.62637 -122.31649 3752 ft 202 kts 180°
2026-04-28 22:53 47.61304 -122.31641 3466 ft 181 kts 182°
2026-04-28 22:54 47.60099 -122.31669 3211 ft 166 kts 182°
2026-04-28 22:54 47.58964 -122.31682 2987 ft 161 kts 182°
2026-04-28 22:54 47.57858 -122.31692 2773 ft 157 kts 181°
2026-04-28 22:54 47.56777 -122.31702 2559 ft 155 kts 181°
2026-04-28 22:55 47.55756 -122.31696 2367 ft 140 kts 181°
2026-04-28 22:55 47.54793 -122.31710 2169 ft 137 kts 181°
2026-04-28 22:55 47.53842 -122.31724 1972 ft 137 kts 181°
2026-04-28 22:55 47.52886 -122.31733 1782 ft 137 kts 182°
2026-04-28 22:56 47.51931 -122.31741 1585 ft 137 kts 182°
2026-04-28 22:56 47.50982 -122.31735 1391 ft 135 kts 181°
2026-04-28 22:56 47.50040 -122.31739 1204 ft 136 kts 181°
2026-04-28 22:56 47.49093 -122.31752 1005 ft 135 kts 182°
2026-04-28 22:57 47.48158 -122.31784 812 ft 133 kts 181°
2026-04-28 22:57 47.47231 -122.31784 642 ft 132 kts 182°
2026-04-28 22:57 47.46324 -122.31782 454 ft 130 kts 182°